This demonstration page uses our WeatherBlox Daily Observations layout. Learn more.

Left ArrowRight Arrow

39.29038, -76.61219

Hourly Observations for August 20, 2015

Temp ( °F °C ) Dew Point ( °F °C ) Humidity (%) Winds ( mph kmh ) Pressure ( in mb ) Visibility ( mi km ) Precip ( " mm )
12:54 am 00:54 Partly Cloudy 79 26.1 74 23.3 85 85 undefined N/A 29.97 1015 N/A 0.00 0.00
1:54 am 01:54 Partly Cloudy 79 26.1 74 23.3 85 85 undefined N/A 29.96 1014 N/A 0.00 0.00
2:54 am 02:54 undefined 79 26.1 75 23.9 88 88 undefined N/A 29.95 1014 N/A 0.00 0.00
3:54 am 03:54 undefined 78 25.6 75 23.9 90 90 undefined N/A 29.93 1014 N/A 0.00 0.00
4:54 am 04:54 undefined 78 25.6 75 23.9 90 90 undefined N/A 29.92 1013 N/A 0.00 0.00
5:54 am 05:54 undefined 77 25 75 23.9 94 94 undefined N/A 29.92 1013 N/A 0.00 0.00
6:54 am 06:54 Mostly Sunny 77 25 75 23.9 94 94 undefined N/A 29.93 1014 N/A 0.00 0.00
7:54 am 07:54 Partly Cloudy 77 25 75 23.9 94 94 undefined N/A 29.84 1011 N/A 0.00 0.00
8:54 am 08:54 undefined 78 25.6 74 23.3 87 87 undefined N/A 29.95 1014 N/A 0.00 0.00
9:54 am 09:54 undefined 80 26.7 74 23.3 82 82 undefined N/A 29.95 1014 N/A 0.00 0.00
10:54 am 10:54 undefined 82 27.8 74 23.3 77 77 undefined N/A 29.94 1014 N/A 0.00 0.00
11:54 am 11:54 Partly Cloudy 83 28.3 74 23.3 74 74 undefined N/A 29.92 1013 N/A 0.00 0.00
12:54 pm 12:54 Mostly Sunny 82 27.8 74 23.3 77 77 undefined N/A 29.91 1013 N/A 0.00 0.00
1:54 pm 13:54 Partly Cloudy 77 25 74 23.3 90 90 undefined N/A 29.92 1013 N/A 0.08 2.03
2:54 pm 14:54 undefined 80 26.7 77 25 90 90 undefined N/A 29.90 1012 N/A 0.09 2.29
3:54 pm 15:54 Mostly Sunny 77 25 61 16.1 58 58 undefined N/A 29.88 1012 N/A 0.00 0.00
4:54 pm 16:54 undefined 85 29.4 72 22.2 65 65 undefined N/A 29.87 1012 N/A 0.00 0.00
5:54 pm 17:54 Partly Cloudy 69 20.6 55 12.8 61 61 undefined N/A 29.89 1012 N/A 0.00 0.00
6:54 pm 18:54 undefined 84 28.9 72 22.2 67 67 undefined N/A 29.91 1013 N/A 0.00 0.00
7:54 pm 19:54 undefined 75 23.9 72 22.2 90 90 undefined N/A 29.91 1013 N/A 0.31 7.87
8:54 pm 20:54 undefined 75 23.9 72 22.2 90 90 undefined N/A 29.91 1013 N/A 0.02 0.51
9:54 pm 21:54 undefined 75 23.9 71 21.7 88 88 undefined N/A 29.95 1014 N/A 0.00 0.00
10:54 pm 22:54 undefined 76 24.4 71 21.7 85 85 undefined N/A 29.96 1015 N/A 0.00 0.00
11:54 pm 23:54 undefined 75 23.9 70 21.1 84 84 undefined N/A 29.95 1014 N/A 0.00 0.00

Powered by AerisWeather